Other Public Products
Issued by NWS Charleston, SC

Current Version | Previous Version | Graphics & Text | Print | Product List | Glossary On
Versions: 1 2 3 4 5 6 7 8 9 10 11 12 13 14 15 16 17 18 19 20 21 22 23 24 25 26 27 28 29 30 31 32 33 34 35 36 37 38 39 40 41 42 43 44 45 46 47 48 49 50
392
FPUS82 KCHS 190838
OPUCHS

TEST...KCHS/KSAV Gateway Observations...TEST
National Weather Service Charleston SC
400 AM EDT TUE SEP 19 2017

NOTE: "fair" indicates few or no clouds below 12,000 feet with no
significant weather and/or obstructions to visibility.

SCZ050-WAZ558-NCZ071-TXZ119-213-PAZ071-DCZ001-FLZ074-172-MI076-
NYZ176-178-MAZ016-IL014-TNZ027-NJZ106-GAZ044-MD014-190900-

...Gateway Observations for Charleston International...

CITY           SKY/WX    TMP DP  RH WIND       PRES   REMARKS
Chas Airport   CLEAR     70  70 100 N3        29.93F
Seattle        LGT RAIN  51  47  86 SE7       29.69F
Charlotte      PTCLDY    66  66 100 N6        29.99F
Dallas DFW     PTCLDY    78  72  81 S7        29.89S
Dallas Love    PTCLDY    78  71  79 S9        29.90S
Philladelphia  CLOUDY    72  67  84 NE9       29.99F
Wash National  PTCLDY    70  67  90 N9        30.00F
Baltimore      MOCLDY    68  66  93 N5        29.99F
Miami          PTCLDY    80  78  94 NW5       29.89S
Detroit        CLOUDY    65  60  84 NE6       30.01F
Newark         CLOUDY    71  67  87 N12       30.03S
Laguardia      CLOUDY    71  68  90 NE15      30.02F
J F K          CLOUDY    71  67  87 NE16      30.02F
Boston Logan   FOG       64  64 100 N9        30.13F VSB 1/4
Ft. Lauderdale MOCLDY    80  77  90 N5        29.88S
Chicago O`Hare LGT RAIN  66  64  93 W3        29.94F
Chicago Midway LGT RAIN  68  65  90 CALM      29.94F FOG
Houston Bush   MOCLDY    74  72  93 NE7       29.94S
Houston Hobby  PTCLDY    79  75  87 CALM      29.94R
Nashville      PTCLDY    68  66  93 S5        29.97F
Atlanta        CLEAR     69  65  86 NW3       29.98F

$$

GAZ044-118-TXZ119-213-NCZ071-DCZ001-MDZ014-506-PAZ021-071-NJZ106-
NYZ176-178-MAZ106-OHZ011-021-055-MIZ076-KYZ091-ILZ014-INZ047-
MNZ060-ONZ431-190900-

...Gateway Observations for Savannah International...

CITY           SKY/WX    TMP DP  RH WIND       PRES   REMARKS
Savannah Arpt  CLEAR     71  69  93 W3        29.94F
Atlanta        CLEAR     69  65  86 NW3       29.98F
Charlotte      PTCLDY    66  66 100 N6        29.99F
Dallas DFW     PTCLDY    78  72  81 S7        29.89S
Houston Bush   MOCLDY    74  72  93 NE7       29.94S
Wash National  PTCLDY    70  67  90 N9        30.00F
Wash Dulles    CLOUDY    67  66  97 N9        30.02R
Baltimore      MOCLDY    68  66  93 N5        29.99F
Philadelphia   CLOUDY    72  67  84 NE9       29.99F
Newark         CLOUDY    71  67  87 N12       30.03S
Laguardia      CLOUDY    71  68  90 NE15      30.02F
J F K          CLOUDY    71  67  87 NE16      30.02F
Boston         FOG       64  64 100 N9        30.13F VSB 1/4
Pittsburg      PTCLDY    66  64  93 CALM      30.02F
Akron          PTCLDY    65  59  81 CALM      30.02F
Cleveland      CLOUDY    69  63  81 SW3       30.01F
Cincinnati     CLOUDY    70  66  87 S6        29.97F
Columbus       CLOUDY    67  66  97 CALM      29.98S
Detroit        CLOUDY    65  60  84 NE6       30.01F
Chicago O`Hare LGT RAIN  66  64  93 W3        29.94F
Minneapolis    CLOUDY    60  58  92 SE7       29.93S
Indianapolis   CLOUDY    70  68  93 S9        29.95S THUNDER
Toronto Canada MOCLDY    66  64  94 N10       30.01S

$$




USA.gov is the U.S. government's official web portal to all federal, state and local government web resources and services.